Simultaneous Nadir Overpasses (SNOs) Predictions

Prediction of SNOs between NOAA-19 and METOP-C Satellite Orbit:

Table of predicted SNOs for the next 14.0 days since TLE Epoch: 11/16/2024
Index Date (NOAA-19) Time (NOAA-19) Lat,Lon (NOAA-19) SZA (NOAA-19 ) Date (METOP-C) Time (METOP-C) Lat,Lon (METOP-C) SZA (METOP-C ) Distance(km) Time Diff (sec)
1 11/16/2024 09:36:16 45.10, 169.53 136.20 11/16/2024 09:37:25 45.10, 169.65 136.47 9.48 69
2 11/16/2024 10:27:11 -45.08, -23.19 43.79 11/16/2024 10:28:03 -45.10, -23.01 43.53 14.64 52
3 11/16/2024 11:18:13 45.09, 144.05 136.22 11/16/2024 11:18:47 45.12, 144.30 136.46 20.30 34
4 11/16/2024 12:34:07 -45.63, 143.49 111.96 11/16/2024 12:34:18 -45.69, 143.19 111.84 24.06 11
5 11/16/2024 13:25:18 45.06, -49.49 67.59 11/16/2024 13:25:06 45.07, -49.70 67.68 16.59 12
6 11/16/2024 14:16:15 -45.01, 117.76 112.45 11/16/2024 14:15:51 -45.03, 117.60 112.35 12.71 24
7 11/16/2024 15:07:16 45.01, -74.99 67.57 11/16/2024 15:06:28 45.05, -75.05 67.68 6.15 48
8 11/16/2024 15:58:12 -45.03, 92.28 112.42 11/16/2024 15:57:13 -45.01, 92.25 112.35 2.63 59
9 11/16/2024 16:31:23 69.52, 49.85 118.56 11/16/2024 16:30:08 69.71, 50.93 118.72 47.15 75
10 11/28/2024 12:13:00 54.79, 126.81 131.74 11/28/2024 12:14:09 54.80, 126.80 131.88 0.87 69
11 11/28/2024 13:03:00 -51.82, -64.34 46.33 11/28/2024 13:03:56 -51.83, -64.35 46.20 1.09 56
12 11/28/2024 13:52:19 45.78, 105.57 137.27 11/28/2024 13:52:54 45.79, 105.57 137.36 0.37 35
13 11/28/2024 14:42:59 -45.07, -86.86 42.34 11/28/2024 14:43:20 -45.07, -86.81 42.25 3.53 21
14 11/28/2024 15:34:02 45.03, 80.39 137.69 11/28/2024 14:43:20 45.06, 80.51 137.76 10.11 0
15 11/28/2024 16:25:08 -45.81,-112.64 42.74 11/28/2024 16:24:54 -45.84,-112.45 42.67 15.01 14
16 11/28/2024 17:16:34 47.03, 54.09 136.58 11/28/2024 17:15:59 47.10, 54.37 136.64 22.52 35
17 11/28/2024 18:32:04 -45.02, 54.09 109.87 11/28/2024 18:31:06 -45.10, 53.81 109.65 23.18 58



Historial Predications of SNOs between NOAA-19 and METOP-C
